Weather History for KPSM - August, 2014

Change the Weather History Date:

Tuesday, August 26, 2014

  Actual Average Record
Temperature  
Mean Temperature 72 °F -  
Max Temperature 84 °F 76 °F 96 °F (1993)
Min Temperature 60 °F 57 °F 38 °F (1981)
Cooling Degree Days 7    
Growing Degree Days 22 (Base 50)    
Moisture  
Dew Point 64 °F    
Average Humidity 76    
Maximum Humidity 94    
Minimum Humidity 55    
Precipitation  
Precipitation 0.00 in - - ()
Sea Level Pressure  
Sea Level Pressure 30.10 in    
Wind  
Wind Speed 3 mph (South)    
Max Wind Speed 13 mph    
Max Gust Speed -    
Visibility 10 miles    
Events      
Averages and records for this station are not official NWS values.
T = Trace of Precipitation, MM = Missing Value Source: NWS Daily Summary

Daily Weather History Graph

Daily Weather History Graph

Search for Another Location

Airport or City:

Trip Planner

Search our weather history database for the weather conditions in past years. The results will help you decide how hot, cold, wet, or windy it might be!

Date:

Astronomy

Aug. 26, 2014 Rise Set
Actual Time 6:01 AM EDT 7:28 PM EDT
Civil Twilight 5:31 AM EDT 7:57 PM EDT
Nautical Twilight 4:55 AM EDT 8:33 PM EDT
Astronomical Twilight 4:17 AM EDT 9:11 PM EDT
Moon 7:01 AM EDT (8/26) 7:44 PM EDT (8/26)
Length of Visible Light 14h 26m
Length of Day
13h 27m
New Moon, 1% of the Moon is Illuminated
Aug 26
New Moon
Sep 2
First Quarter
Sep 8
Full
Sep 15
Last Quarter
Sep 24
New

Hourly Weather History & Observations

Time (EDT) Temp. Heat Index Dew Point Humidity Pressure Visibility Wind Dir Wind Speed Gust Speed Precip Events Conditions
12:58 AM 63.1 °F - 60.6 °F 91% 30.14 in 10.0 mi Calm Calm - N/A   Clear
1:58 AM 63.3 °F - 60.6 °F 91% 30.13 in 10.0 mi South 3.5 mph - N/A   Clear
2:58 AM 62.6 °F - 60.3 °F 92% 30.13 in 10.0 mi WNW 1.2 mph - N/A   Scattered Clouds
3:58 AM 61.5 °F - 59.2 °F 92% 30.13 in 10.0 mi SE 1.2 mph - N/A   Scattered Clouds
4:58 AM 60.6 °F - 58.6 °F 93% 30.13 in 10.0 mi South 2.3 mph - N/A   Partly Cloudy
5:58 AM 60.1 °F - 58.1 °F 93% 30.14 in 8.0 mi SE 2.3 mph - N/A   Partly Cloudy
6:58 AM 61.3 °F - 59.5 °F 94% 30.15 in 8.0 mi SSW 2.3 mph - N/A   Partly Cloudy
7:58 AM 66.4 °F - 63.0 °F 89% 30.15 in 10.0 mi WSW 2.3 mph - N/A   Partly Cloudy
8:58 AM 71.8 °F - 64.6 °F 78% 30.16 in 10.0 mi SSW 1.2 mph - N/A   Partly Cloudy
9:58 AM 77.0 °F - 66.0 °F 69% 30.15 in 10.0 mi SW 2.3 mph - N/A   Clear
10:58 AM 79.9 °F - 65.7 °F 62% 30.14 in 10.0 mi SSE 2.3 mph - N/A   Partly Cloudy
11:58 AM 83.7 °F 85.8 °F 65.8 °F 55% 30.13 in 10.0 mi Variable 3.5 mph - N/A   Partly Cloudy
12:58 PM 83.1 °F 86.8 °F 69.4 °F 63% 30.12 in 10.0 mi SSE 5.8 mph - N/A   Partly Cloudy
1:58 PM 84.2 °F 87.9 °F 68.9 °F 60% 30.11 in 10.0 mi SSE 5.8 mph - N/A   Partly Cloudy
2:58 PM 83.7 °F 86.5 °F 67.6 °F 58% 30.09 in 10.0 mi SE 9.2 mph - N/A   Partly Cloudy
3:58 PM 83.3 °F 85.9 °F 66.9 °F 58% 30.07 in 10.0 mi South 10.4 mph - N/A   Partly Cloudy
4:58 PM 79.9 °F - 66.0 °F 62% 30.06 in 10.0 mi SSE 12.7 mph - N/A   Partly Cloudy
5:58 PM 77.2 °F - 63.9 °F 63% 30.04 in 10.0 mi SSE 8.1 mph - N/A   Partly Cloudy
6:58 PM 74.7 °F - 63.7 °F 69% 30.03 in 10.0 mi SSE 6.9 mph - N/A   Partly Cloudy
7:58 PM 71.4 °F - 63.1 °F 75% 30.03 in 10.0 mi SSE 4.6 mph - N/A   Partly Cloudy
8:58 PM 68.2 °F - 63.0 °F 83% 30.03 in 10.0 mi ESE 3.5 mph - N/A   Clear
9:58 PM 70.2 °F - 63.7 °F 80% 30.03 in 10.0 mi South 5.8 mph - N/A   Clear
10:58 PM 72.0 °F - 65.3 °F 79% 30.02 in 10.0 mi South 9.2 mph - N/A   Clear
11:58 PM 70.9 °F - 65.1 °F 82% 30.01 in 10.0 mi SSW 10.4 mph - N/A   Clear